Location: Nairn
(57.5833°N, 3.8667°W)
Time: 17:48:08
(UTC+00:00)

FALCON 9 DEB - Pass Details

Date: 07 August 2020
Orbit: 427 x 441 km, 53.0° (Epoch: 23 September)

Event Time Altitude Azimuth Distance (km) Brightness Sun altitude
Exits shadow 01:48:42 17° 249° (WSW) 1,209 5.0 -13.9°
Maximum altitude 01:50:58 36° 189° (S) 716 3.7 -13.8°
Drops below altitude 10° 01:54:13 10° 121° (ESE) 1,555 5.8 -13.6°
Sets 01:56:25 0° 113° (ESE) 2,421 6.9 -13.5°
